owner,sensor,date,latitude,longitude,relative_humidity,qcFlag 
COMPS,ioos:station:USF.COMPS:ARP:1,2017-01-01T00:00:00Z,28.4330,-82.6670,84.16,1111122 
COMPS,ioos:station:USF.COMPS:ARP:1,2017-01-01T00:06:00Z,28.4330,-82.6670,85.22,1111122 
COMPS,ioos:station:USF.COMPS:ARP:1,2017-01-01T00:12:00Z,28.4330,-82.6670,86.11,1111122 
COMPS,ioos:station:USF.COMPS:ARP:1,2017-01-01T00:18:00Z,28.4330,-82.6670,87.23,1111122 
COMPS,ioos:station:USF.COMPS:ARP:1,2017-01-01T00:24:00Z,28.4330,-82.6670,87.81,1111122 
COMPS,ioos:station:USF.COMPS:ARP:1,2017-01-01T00:30:00Z,28.4330,-82.6670,88.67,1111122 
COMPS,ioos:station:USF.COMPS:ARP:1,2017-01-01T00:36:00Z,28.4330,-82.6670,89.0,1111122 
COMPS,ioos:station:USF.COMPS:ARP:1,2017-01-01T00:42:00Z,28.4330,-82.6670,89.19,1111122 
COMPS,ioos:station:USF.COMPS:ARP:1,2017-01-01T00:48:00Z,28.4330,-82.6670,88.86,1111122 
COMPS,ioos:station:USF.COMPS:ARP:1,2017-01-01T00:54:00Z,28.4330,-82.6670,88.44,1111122 
COMPS,ioos:station:USF.COMPS:ARP:1,2017-01-01T01:00:00Z,28.4330,-82.6670,89.01,1111122 
COMPS,ioos:station:USF.COMPS:ARP:1,2017-01-01T01:06:00Z,28.4330,-82.6670,89.21,1111122 
COMPS,ioos:station:USF.COMPS:ARP:1,2017-01-01T01:12:00Z,28.4330,-82.6670,89.52,1111122 
COMPS,ioos:station:USF.COMPS:ARP:1,2017-01-01T01:18:00Z,28.4330,-82.6670,89.68,1111122 
COMPS,ioos:station:USF.COMPS:ARP:1,2017-01-01T01:24:00Z,28.4330,-82.6670,89.05,1111122 
COMPS,ioos:station:USF.COMPS:ARP:1,2017-01-01T01:30:00Z,28.4330,-82.6670,88.94,1111122 
COMPS,ioos:station:USF.COMPS:ARP:1,2017-01-01T01:36:00Z,28.4330,-82.6670,90.09,1111122 
COMPS,ioos:station:USF.COMPS:ARP:1,2017-01-01T01:42:00Z,28.4330,-82.6670,88.91,1111122 
COMPS,ioos:station:USF.COMPS:ARP:1,2017-01-01T01:48:00Z,28.4330,-82.6670,84.8,1111122 
COMPS,ioos:station:USF.COMPS:ARP:1,2017-01-01T01:54:00Z,28.4330,-82.6670,83.5,1111122 
COMPS,ioos:station:USF.COMPS:ARP:1,2017-01-01T02:00:00Z,28.4330,-82.6670,82.37,1111122 
COMPS,ioos:station:USF.COMPS:ARP:1,2017-01-01T02:06:00Z,28.4330,-82.6670,79.78,1111122 
COMPS,ioos:station:USF.COMPS:ARP:1,2017-01-01T02:12:00Z,28.4330,-82.6670,78.96,1111122 
COMPS,ioos:station:USF.COMPS:ARP:1,2017-01-01T02:18:00Z,28.4330,-82.6670,77.94,1111122 
COMPS,ioos:station:USF.COMPS:ARP:1,2017-01-01T02:24:00Z,28.4330,-82.6670,78.05,1111122 
COMPS,ioos:station:USF.COMPS:ARP:1,2017-01-01T02:30:00Z,28.4330,-82.6670,77.84,1111122 
COMPS,ioos:station:USF.COMPS:ARP:1,2017-01-01T02:36:00Z,28.4330,-82.6670,78.12,1111122 
COMPS,ioos:station:USF.COMPS:ARP:1,2017-01-01T02:42:00Z,28.4330,-82.6670,78.24,1111122 
COMPS,ioos:station:USF.COMPS:ARP:1,2017-01-01T02:48:00Z,28.4330,-82.6670,78.22,1111122 
COMPS,ioos:station:USF.COMPS:ARP:1,2017-01-01T02:54:00Z,28.4330,-82.6670,77.67,1111122 
COMPS,ioos:station:USF.COMPS:ARP:1,2017-01-01T03:00:00Z,28.4330,-82.6670,77.07,1111122 
COMPS,ioos:station:USF.COMPS:ARP:1,2017-01-01T03:06:00Z,28.4330,-82.6670,76.52,1111122 
COMPS,ioos:station:USF.COMPS:ARP:1,2017-01-01T03:12:00Z,28.4330,-82.6670,76.44,1111122 
COMPS,ioos:station:USF.COMPS:ARP:1,2017-01-01T03:18:00Z,28.4330,-82.6670,76.73,1111122 
COMPS,ioos:station:USF.COMPS:ARP:1,2017-01-01T03:24:00Z,28.4330,-82.6670,76.31,1111122 
COMPS,ioos:station:USF.COMPS:ARP:1,2017-01-01T03:30:00Z,28.4330,-82.6670,76.21,1111122 
COMPS,ioos:station:USF.COMPS:ARP:1,2017-01-01T03:36:00Z,28.4330,-82.6670,76.58,1111122 
COMPS,ioos:station:USF.COMPS:ARP:1,2017-01-01T03:42:00Z,28.4330,-82.6670,76.21,1111122 
COMPS,ioos:station:USF.COMPS:ARP:1,2017-01-01T03:48:00Z,28.4330,-82.6670,75.81,1111122 
COMPS,ioos:station:USF.COMPS:ARP:1,2017-01-01T03:54:00Z,28.4330,-82.6670,75.53,1111122 
COMPS,ioos:station:USF.COMPS:ARP:1,2017-01-01T04:00:00Z,28.4330,-82.6670,75.63,1111122 
COMPS,ioos:station:USF.COMPS:ARP:1,2017-01-01T04:06:00Z,28.4330,-82.6670,75.19,1111122 
COMPS,ioos:station:USF.COMPS:ARP:1,2017-01-01T04:12:00Z,28.4330,-82.6670,75.63,1111122 
COMPS,ioos:station:USF.COMPS:ARP:1,2017-01-01T04:18:00Z,28.4330,-82.6670,75.79,1111122 
COMPS,ioos:station:USF.COMPS:ARP:1,2017-01-01T04:24:00Z,28.4330,-82.6670,75.76,1111122 
COMPS,ioos:station:USF.COMPS:ARP:1,2017-01-01T04:30:00Z,28.4330,-82.6670,75.78,1111122 
COMPS,ioos:station:USF.COMPS:ARP:1,2017-01-01T04:36:00Z,28.4330,-82.6670,75.92,1111122 
COMPS,ioos:station:USF.COMPS:ARP:1,2017-01-01T04:42:00Z,28.4330,-82.6670,75.99,1111122 
COMPS,ioos:station:USF.COMPS:ARP:1,2017-01-01T04:48:00Z,28.4330,-82.6670,76.49,1111122 
COMPS,ioos:station:USF.COMPS:ARP:1,2017-01-01T04:54:00Z,28.4330,-82.6670,77.2,1111122 
COMPS,ioos:station:USF.COMPS:ARP:1,2017-01-01T05:00:00Z,28.4330,-82.6670,77.58,1111122 
COMPS,ioos:station:USF.COMPS:ARP:1,2017-01-01T05:06:00Z,28.4330,-82.6670,78.54,1111122 
COMPS,ioos:station:USF.COMPS:ARP:1,2017-01-01T05:12:00Z,28.4330,-82.6670,77.3,1111122 
COMPS,ioos:station:USF.COMPS:ARP:1,2017-01-01T05:18:00Z,28.4330,-82.6670,77.01,1111122 
COMPS,ioos:station:USF.COMPS:ARP:1,2017-01-01T05:24:00Z,28.4330,-82.6670,76.98,1111122 
COMPS,ioos:station:USF.COMPS:ARP:1,2017-01-01T05:30:00Z,28.4330,-82.6670,76.61,1111122 
COMPS,ioos:station:USF.COMPS:ARP:1,2017-01-01T05:36:00Z,28.4330,-82.6670,76.43,1111122 
COMPS,ioos:station:USF.COMPS:ARP:1,2017-01-01T05:42:00Z,28.4330,-82.6670,76.84,1111122 
COMPS,ioos:station:USF.COMPS:ARP:1,2017-01-01T05:48:00Z,28.4330,-82.6670,76.41,1111122 
COMPS,ioos:station:USF.COMPS:ARP:1,2017-01-01T05:54:00Z,28.4330,-82.6670,76.8,1111122 
COMPS,ioos:station:USF.COMPS:ARP:1,2017-01-01T06:00:00Z,28.4330,-82.6670,78.61,1111122 
COMPS,ioos:station:USF.COMPS:ARP:1,2017-01-01T06:06:00Z,28.4330,-82.6670,78.58,1111122 
COMPS,ioos:station:USF.COMPS:ARP:1,2017-01-01T06:12:00Z,28.4330,-82.6670,79.6,1111122 
COMPS,ioos:station:USF.COMPS:ARP:1,2017-01-01T06:18:00Z,28.4330,-82.6670,80.83,1111122 
COMPS,ioos:station:USF.COMPS:ARP:1,2017-01-01T06:24:00Z,28.4330,-82.6670,82.08,1111122 
COMPS,ioos:station:USF.COMPS:ARP:1,2017-01-01T06:30:00Z,28.4330,-82.6670,83.17,1111122 
COMPS,ioos:station:USF.COMPS:ARP:1,2017-01-01T06:36:00Z,28.4330,-82.6670,85.57,1111122 
COMPS,ioos:station:USF.COMPS:ARP:1,2017-01-01T06:42:00Z,28.4330,-82.6670,86.12,1111122 
COMPS,ioos:station:USF.COMPS:ARP:1,2017-01-01T06:48:00Z,28.4330,-82.6670,87.18,1111122 
COMPS,ioos:station:USF.COMPS:ARP:1,2017-01-01T06:54:00Z,28.4330,-82.6670,86.43,1111122 
COMPS,ioos:station:USF.COMPS:ARP:1,2017-01-01T07:00:00Z,28.4330,-82.6670,85.7,1111122 
COMPS,ioos:station:USF.COMPS:ARP:1,2017-01-01T07:06:00Z,28.4330,-82.6670,85.77,1111122 
COMPS,ioos:station:USF.COMPS:ARP:1,2017-01-01T07:12:00Z,28.4330,-82.6670,86.11,1111122 
COMPS,ioos:station:USF.COMPS:ARP:1,2017-01-01T07:18:00Z,28.4330,-82.6670,86.11,1111122 
COMPS,ioos:station:USF.COMPS:ARP:1,2017-01-01T07:24:00Z,28.4330,-82.6670,85.69,1111122 
COMPS,ioos:station:USF.COMPS:ARP:1,2017-01-01T07:30:00Z,28.4330,-82.6670,85.28,1111122 
COMPS,ioos:station:USF.COMPS:ARP:1,2017-01-01T07:36:00Z,28.4330,-82.6670,85.63,1111122 
COMPS,ioos:station:USF.COMPS:ARP:1,2017-01-01T07:42:00Z,28.4330,-82.6670,86.13,1111122 
COMPS,ioos:station:USF.COMPS:ARP:1,2017-01-01T07:48:00Z,28.4330,-82.6670,86.6,1111122 
COMPS,ioos:station:USF.COMPS:ARP:1,2017-01-01T07:54:00Z,28.4330,-82.6670,87.16,1111122 
COMPS,ioos:station:USF.COMPS:ARP:1,2017-01-01T08:00:00Z,28.4330,-82.6670,87.74,1111122 
COMPS,ioos:station:USF.COMPS:ARP:1,2017-01-01T08:06:00Z,28.4330,-82.6670,88.32,1111122 
COMPS,ioos:station:USF.COMPS:ARP:1,2017-01-01T08:12:00Z,28.4330,-82.6670,88.77,1111122 
COMPS,ioos:station:USF.COMPS:ARP:1,2017-01-01T08:18:00Z,28.4330,-82.6670,89.12,1111122 
COMPS,ioos:station:USF.COMPS:ARP:1,2017-01-01T08:24:00Z,28.4330,-82.6670,89.4,1111122 
COMPS,ioos:station:USF.COMPS:ARP:1,2017-01-01T08:30:00Z,28.4330,-82.6670,89.61,1111122 
COMPS,ioos:station:USF.COMPS:ARP:1,2017-01-01T08:36:00Z,28.4330,-82.6670,89.83,1111122 
COMPS,ioos:station:USF.COMPS:ARP:1,2017-01-01T08:42:00Z,28.4330,-82.6670,89.98,1111122 
COMPS,ioos:station:USF.COMPS:ARP:1,2017-01-01T08:48:00Z,28.4330,-82.6670,90.14,1111122 
COMPS,ioos:station:USF.COMPS:ARP:1,2017-01-01T08:54:00Z,28.4330,-82.6670,89.93,1111122 
COMPS,ioos:station:USF.COMPS:ARP:1,2017-01-01T09:00:00Z,28.4330,-82.6670,89.64,1111122 
COMPS,ioos:station:USF.COMPS:ARP:1,2017-01-01T09:06:00Z,28.4330,-82.6670,89.17,1111122 
COMPS,ioos:station:USF.COMPS:ARP:1,2017-01-01T09:12:00Z,28.4330,-82.6670,88.92,1111122 
COMPS,ioos:station:USF.COMPS:ARP:1,2017-01-01T09:18:00Z,28.4330,-82.6670,88.79,1111122 
COMPS,ioos:station:USF.COMPS:ARP:1,2017-01-01T09:24:00Z,28.4330,-82.6670,88.59,1111122 
COMPS,ioos:station:USF.COMPS:ARP:1,2017-01-01T09:30:00Z,28.4330,-82.6670,88.64,1111122 
COMPS,ioos:station:USF.COMPS:ARP:1,2017-01-01T09:36:00Z,28.4330,-82.6670,88.75,1111122 
COMPS,ioos:station:USF.COMPS:ARP:1,2017-01-01T09:42:00Z,28.4330,-82.6670,88.93,1111122 
COMPS,ioos:station:USF.COMPS:ARP:1,2017-01-01T09:48:00Z,28.4330,-82.6670,89.16,1111122 
COMPS,ioos:station:USF.COMPS:ARP:1,2017-01-01T09:54:00Z,28.4330,-82.6670,89.21,1111122 
COMPS,ioos:station:USF.COMPS:ARP:1,2017-01-01T10:00:00Z,28.4330,-82.6670,88.84,1111122 
COMPS,ioos:station:USF.COMPS:ARP:1,2017-01-01T10:06:00Z,28.4330,-82.6670,88.68,1111122 
COMPS,ioos:station:USF.COMPS:ARP:1,2017-01-01T10:12:00Z,28.4330,-82.6670,88.8,1111122 
COMPS,ioos:station:USF.COMPS:ARP:1,2017-01-01T10:18:00Z,28.4330,-82.6670,88.75,1111122 
COMPS,ioos:station:USF.COMPS:ARP:1,2017-01-01T10:24:00Z,28.4330,-82.6670,88.69,1111122 
COMPS,ioos:station:USF.COMPS:ARP:1,2017-01-01T10:30:00Z,28.4330,-82.6670,89.15,1111122 
COMPS,ioos:station:USF.COMPS:ARP:1,2017-01-01T10:36:00Z,28.4330,-82.6670,89.63,1111122 
COMPS,ioos:station:USF.COMPS:ARP:1,2017-01-01T10:42:00Z,28.4330,-82.6670,89.95,1111122 
COMPS,ioos:station:USF.COMPS:ARP:1,2017-01-01T10:48:00Z,28.4330,-82.6670,90.17,1111122 
COMPS,ioos:station:USF.COMPS:ARP:1,2017-01-01T10:54:00Z,28.4330,-82.6670,90.38,1111122 
COMPS,ioos:station:USF.COMPS:ARP:1,2017-01-01T11:00:00Z,28.4330,-82.6670,90.61,1111122 
COMPS,ioos:station:USF.COMPS:ARP:1,2017-01-01T11:06:00Z,28.4330,-82.6670,90.94,1111122 
COMPS,ioos:station:USF.COMPS:ARP:1,2017-01-01T11:12:00Z,28.4330,-82.6670,91.16,1111122 
COMPS,ioos:station:USF.COMPS:ARP:1,2017-01-01T11:18:00Z,28.4330,-82.6670,91.47,1111122 
COMPS,ioos:station:USF.COMPS:ARP:1,2017-01-01T11:24:00Z,28.4330,-82.6670,91.86,1111122 
COMPS,ioos:station:USF.COMPS:ARP:1,2017-01-01T11:30:00Z,28.4330,-82.6670,92.17,1111122 
COMPS,ioos:station:USF.COMPS:ARP:1,2017-01-01T11:36:00Z,28.4330,-82.6670,92.36,1111122 
COMPS,ioos:station:USF.COMPS:ARP:1,2017-01-01T11:42:00Z,28.4330,-82.6670,92.42,1111122 
COMPS,ioos:station:USF.COMPS:ARP:1,2017-01-01T11:48:00Z,28.4330,-82.6670,92.68,1111122 
COMPS,ioos:station:USF.COMPS:ARP:1,2017-01-01T11:54:00Z,28.4330,-82.6670,92.74,1111122 
COMPS,ioos:station:USF.COMPS:ARP:1,2017-01-01T12:00:00Z,28.4330,-82.6670,92.81,1111122 
COMPS,ioos:station:USF.COMPS:ARP:1,2017-01-01T12:06:00Z,28.4330,-82.6670,92.81,1111122 
COMPS,ioos:station:USF.COMPS:ARP:1,2017-01-01T12:12:00Z,28.4330,-82.6670,92.92,1111122 
COMPS,ioos:station:USF.COMPS:ARP:1,2017-01-01T12:18:00Z,28.4330,-82.6670,93.22,1111122 
COMPS,ioos:station:USF.COMPS:ARP:1,2017-01-01T12:24:00Z,28.4330,-82.6670,93.38,1111122 
COMPS,ioos:station:USF.COMPS:ARP:1,2017-01-01T12:30:00Z,28.4330,-82.6670,93.36,1111122 
COMPS,ioos:station:USF.COMPS:ARP:1,2017-01-01T12:36:00Z,28.4330,-82.6670,93.27,1111122 
COMPS,ioos:station:USF.COMPS:ARP:1,2017-01-01T12:42:00Z,28.4330,-82.6670,93.2,1111122 
COMPS,ioos:station:USF.COMPS:ARP:1,2017-01-01T12:48:00Z,28.4330,-82.6670,93.24,1111122 
COMPS,ioos:station:USF.COMPS:ARP:1,2017-01-01T12:54:00Z,28.4330,-82.6670,93.08,1111122 
COMPS,ioos:station:USF.COMPS:ARP:1,2017-01-01T13:00:00Z,28.4330,-82.6670,92.84,1111122 
COMPS,ioos:station:USF.COMPS:ARP:1,2017-01-01T13:06:00Z,28.4330,-82.6670,92.59,1111122 
COMPS,ioos:station:USF.COMPS:ARP:1,2017-01-01T13:12:00Z,28.4330,-82.6670,92.08,1111122 
COMPS,ioos:station:USF.COMPS:ARP:1,2017-01-01T13:18:00Z,28.4330,-82.6670,91.25,1111122 
COMPS,ioos:station:USF.COMPS:ARP:1,2017-01-01T13:24:00Z,28.4330,-82.6670,90.09,1111122 
COMPS,ioos:station:USF.COMPS:ARP:1,2017-01-01T13:30:00Z,28.4330,-82.6670,88.8,1111122 
COMPS,ioos:station:USF.COMPS:ARP:1,2017-01-01T13:36:00Z,28.4330,-82.6670,87.44,1111122 
COMPS,ioos:station:USF.COMPS:ARP:1,2017-01-01T13:42:00Z,28.4330,-82.6670,86.08,1111122 
COMPS,ioos:station:USF.COMPS:ARP:1,2017-01-01T13:48:00Z,28.4330,-82.6670,84.77,1111122 
COMPS,ioos:station:USF.COMPS:ARP:1,2017-01-01T13:54:00Z,28.4330,-82.6670,83.63,1111122 
COMPS,ioos:station:USF.COMPS:ARP:1,2017-01-01T14:00:00Z,28.4330,-82.6670,82.36,1111122 
COMPS,ioos:station:USF.COMPS:ARP:1,2017-01-01T14:06:00Z,28.4330,-82.6670,81.23,1111122 
COMPS,ioos:station:USF.COMPS:ARP:1,2017-01-01T14:12:00Z,28.4330,-82.6670,79.88,1111122 
COMPS,ioos:station:USF.COMPS:ARP:1,2017-01-01T14:18:00Z,28.4330,-82.6670,78.64,1111122 
COMPS,ioos:station:USF.COMPS:ARP:1,2017-01-01T14:24:00Z,28.4330,-82.6670,77.54,1111122 
COMPS,ioos:station:USF.COMPS:ARP:1,2017-01-01T14:30:00Z,28.4330,-82.6670,76.13,1111122 
COMPS,ioos:station:USF.COMPS:ARP:1,2017-01-01T14:36:00Z,28.4330,-82.6670,74.79,1111122 
COMPS,ioos:station:USF.COMPS:ARP:1,2017-01-01T14:42:00Z,28.4330,-82.6670,73.71,1111122 
COMPS,ioos:station:USF.COMPS:ARP:1,2017-01-01T14:48:00Z,28.4330,-82.6670,72.67,1111122 
COMPS,ioos:station:USF.COMPS:ARP:1,2017-01-01T14:54:00Z,28.4330,-82.6670,71.81,1111122 
COMPS,ioos:station:USF.COMPS:ARP:1,2017-01-01T15:00:00Z,28.4330,-82.6670,70.72,1111122 
COMPS,ioos:station:USF.COMPS:ARP:1,2017-01-01T15:06:00Z,28.4330,-82.6670,70.14,1111122 
COMPS,ioos:station:USF.COMPS:ARP:1,2017-01-01T15:12:00Z,28.4330,-82.6670,69.45,1111122 
COMPS,ioos:station:USF.COMPS:ARP:1,2017-01-01T15:18:00Z,28.4330,-82.6670,68.54,1111122 
COMPS,ioos:station:USF.COMPS:ARP:1,2017-01-01T15:24:00Z,28.4330,-82.6670,68.11,1111122 
COMPS,ioos:station:USF.COMPS:ARP:1,2017-01-01T15:30:00Z,28.4330,-82.6670,67.44,1111122 
COMPS,ioos:station:USF.COMPS:ARP:1,2017-01-01T15:36:00Z,28.4330,-82.6670,67.38,1111122 
COMPS,ioos:station:USF.COMPS:ARP:1,2017-01-01T15:42:00Z,28.4330,-82.6670,66.87,1111122 
COMPS,ioos:station:USF.COMPS:ARP:1,2017-01-01T15:48:00Z,28.4330,-82.6670,66.36,1111122 
COMPS,ioos:station:USF.COMPS:ARP:1,2017-01-01T15:54:00Z,28.4330,-82.6670,65.47,1111122 
COMPS,ioos:station:USF.COMPS:ARP:1,2017-01-01T16:00:00Z,28.4330,-82.6670,64.78,1111122 
COMPS,ioos:station:USF.COMPS:ARP:1,2017-01-01T16:06:00Z,28.4330,-82.6670,63.72,1111122 
COMPS,ioos:station:USF.COMPS:ARP:1,2017-01-01T16:12:00Z,28.4330,-82.6670,63.92,1111122 
COMPS,ioos:station:USF.COMPS:ARP:1,2017-01-01T16:18:00Z,28.4330,-82.6670,63.71,1111122 
COMPS,ioos:station:USF.COMPS:ARP:1,2017-01-01T16:24:00Z,28.4330,-82.6670,63.46,1111122 
COMPS,ioos:station:USF.COMPS:ARP:1,2017-01-01T16:30:00Z,28.4330,-82.6670,62.59,1111122 
COMPS,ioos:station:USF.COMPS:ARP:1,2017-01-01T16:36:00Z,28.4330,-82.6670,62.67,1111122 
COMPS,ioos:station:USF.COMPS:ARP:1,2017-01-01T16:42:00Z,28.4330,-82.6670,62.03,1111122 
COMPS,ioos:station:USF.COMPS:ARP:1,2017-01-01T16:48:00Z,28.4330,-82.6670,61.97,1111122 
COMPS,ioos:station:USF.COMPS:ARP:1,2017-01-01T16:54:00Z,28.4330,-82.6670,61.87,1111122 
COMPS,ioos:station:USF.COMPS:ARP:1,2017-01-01T17:00:00Z,28.4330,-82.6670,61.68,1111122 
COMPS,ioos:station:USF.COMPS:ARP:1,2017-01-01T17:06:00Z,28.4330,-82.6670,61.45,1111122 
COMPS,ioos:station:USF.COMPS:ARP:1,2017-01-01T17:12:00Z,28.4330,-82.6670,59.88,1111122 
COMPS,ioos:station:USF.COMPS:ARP:1,2017-01-01T17:18:00Z,28.4330,-82.6670,60.47,1111122 
COMPS,ioos:station:USF.COMPS:ARP:1,2017-01-01T17:24:00Z,28.4330,-82.6670,60.46,1111122 
COMPS,ioos:station:USF.COMPS:ARP:1,2017-01-01T17:30:00Z,28.4330,-82.6670,61.61,1111122 
COMPS,ioos:station:USF.COMPS:ARP:1,2017-01-01T17:36:00Z,28.4330,-82.6670,60.27,1111122 
COMPS,ioos:station:USF.COMPS:ARP:1,2017-01-01T17:42:00Z,28.4330,-82.6670,60.12,1111122 
COMPS,ioos:station:USF.COMPS:ARP:1,2017-01-01T17:48:00Z,28.4330,-82.6670,59.69,1111122 
COMPS,ioos:station:USF.COMPS:ARP:1,2017-01-01T17:54:00Z,28.4330,-82.6670,58.73,1111122 
COMPS,ioos:station:USF.COMPS:ARP:1,2017-01-01T18:00:00Z,28.4330,-82.6670,60.16,1111122 
COMPS,ioos:station:USF.COMPS:ARP:1,2017-01-01T18:06:00Z,28.4330,-82.6670,59.62,1111122 
COMPS,ioos:station:USF.COMPS:ARP:1,2017-01-01T18:12:00Z,28.4330,-82.6670,59.54,1111122 
COMPS,ioos:station:USF.COMPS:ARP:1,2017-01-01T18:18:00Z,28.4330,-82.6670,59.09,1111122 
COMPS,ioos:station:USF.COMPS:ARP:1,2017-01-01T18:24:00Z,28.4330,-82.6670,59.2,1111122 
COMPS,ioos:station:USF.COMPS:ARP:1,2017-01-01T18:30:00Z,28.4330,-82.6670,59.67,1111122 
COMPS,ioos:station:USF.COMPS:ARP:1,2017-01-01T18:36:00Z,28.4330,-82.6670,58.59,1111122 
COMPS,ioos:station:USF.COMPS:ARP:1,2017-01-01T18:42:00Z,28.4330,-82.6670,57.54,1111122 
COMPS,ioos:station:USF.COMPS:ARP:1,2017-01-01T18:48:00Z,28.4330,-82.6670,57.34,1111122 
COMPS,ioos:station:USF.COMPS:ARP:1,2017-01-01T18:54:00Z,28.4330,-82.6670,56.61,1111122 
COMPS,ioos:station:USF.COMPS:ARP:1,2017-01-01T19:00:00Z,28.4330,-82.6670,57.74,1111122 
COMPS,ioos:station:USF.COMPS:ARP:1,2017-01-01T19:06:00Z,28.4330,-82.6670,57.88,1111122 
COMPS,ioos:station:USF.COMPS:ARP:1,2017-01-01T19:12:00Z,28.4330,-82.6670,58.28,1111122 
COMPS,ioos:station:USF.COMPS:ARP:1,2017-01-01T19:18:00Z,28.4330,-82.6670,57.05,1111122 
COMPS,ioos:station:USF.COMPS:ARP:1,2017-01-01T19:24:00Z,28.4330,-82.6670,56.23,1111122 
COMPS,ioos:station:USF.COMPS:ARP:1,2017-01-01T19:30:00Z,28.4330,-82.6670,55.58,1111122 
COMPS,ioos:station:USF.COMPS:ARP:1,2017-01-01T19:36:00Z,28.4330,-82.6670,55.39,1111122 
COMPS,ioos:station:USF.COMPS:ARP:1,2017-01-01T19:42:00Z,28.4330,-82.6670,55.79,1111122 
COMPS,ioos:station:USF.COMPS:ARP:1,2017-01-01T19:48:00Z,28.4330,-82.6670,62.79,1111122 
COMPS,ioos:station:USF.COMPS:ARP:1,2017-01-01T19:54:00Z,28.4330,-82.6670,66.71,1111122 
COMPS,ioos:station:USF.COMPS:ARP:1,2017-01-01T20:00:00Z,28.4330,-82.6670,65.08,1111122 
COMPS,ioos:station:USF.COMPS:ARP:1,2017-01-01T20:06:00Z,28.4330,-82.6670,67.6,1111122 
COMPS,ioos:station:USF.COMPS:ARP:1,2017-01-01T20:12:00Z,28.4330,-82.6670,70.5,1111122 
COMPS,ioos:station:USF.COMPS:ARP:1,2017-01-01T20:18:00Z,28.4330,-82.6670,68.0,1111122 
COMPS,ioos:station:USF.COMPS:ARP:1,2017-01-01T20:24:00Z,28.4330,-82.6670,67.29,1111122 
COMPS,ioos:station:USF.COMPS:ARP:1,2017-01-01T20:30:00Z,28.4330,-82.6670,68.94,1111122 
COMPS,ioos:station:USF.COMPS:ARP:1,2017-01-01T20:36:00Z,28.4330,-82.6670,68.34,1111122 
COMPS,ioos:station:USF.COMPS:ARP:1,2017-01-01T20:42:00Z,28.4330,-82.6670,68.41,1111122 
COMPS,ioos:station:USF.COMPS:ARP:1,2017-01-01T20:48:00Z,28.4330,-82.6670,68.06,1111122 
COMPS,ioos:station:USF.COMPS:ARP:1,2017-01-01T20:54:00Z,28.4330,-82.6670,69.69,1111122 
COMPS,ioos:station:USF.COMPS:ARP:1,2017-01-01T21:00:00Z,28.4330,-82.6670,69.67,1111122 
COMPS,ioos:station:USF.COMPS:ARP:1,2017-01-01T21:06:00Z,28.4330,-82.6670,70.4,1111122 
COMPS,ioos:station:USF.COMPS:ARP:1,2017-01-01T21:12:00Z,28.4330,-82.6670,70.56,1111122 
COMPS,ioos:station:USF.COMPS:ARP:1,2017-01-01T21:18:00Z,28.4330,-82.6670,71.99,1111122 
COMPS,ioos:station:USF.COMPS:ARP:1,2017-01-01T21:24:00Z,28.4330,-82.6670,73.23,1111122 
COMPS,ioos:station:USF.COMPS:ARP:1,2017-01-01T21:30:00Z,28.4330,-82.6670,73.53,1111122 
COMPS,ioos:station:USF.COMPS:ARP:1,2017-01-01T21:36:00Z,28.4330,-82.6670,74.22,1111122 
COMPS,ioos:station:USF.COMPS:ARP:1,2017-01-01T21:42:00Z,28.4330,-82.6670,74.34,1111122 
COMPS,ioos:station:USF.COMPS:ARP:1,2017-01-01T21:48:00Z,28.4330,-82.6670,74.41,1111122 
COMPS,ioos:station:USF.COMPS:ARP:1,2017-01-01T21:54:00Z,28.4330,-82.6670,74.64,1111122 
COMPS,ioos:station:USF.COMPS:ARP:1,2017-01-01T22:00:00Z,28.4330,-82.6670,76.85,1111122 
COMPS,ioos:station:USF.COMPS:ARP:1,2017-01-01T22:06:00Z,28.4330,-82.6670,78.26,1111122 
COMPS,ioos:station:USF.COMPS:ARP:1,2017-01-01T22:12:00Z,28.4330,-82.6670,78.79,1111122 
COMPS,ioos:station:USF.COMPS:ARP:1,2017-01-01T22:18:00Z,28.4330,-82.6670,79.8,1111122 
COMPS,ioos:station:USF.COMPS:ARP:1,2017-01-01T22:24:00Z,28.4330,-82.6670,80.76,1111122 
COMPS,ioos:station:USF.COMPS:ARP:1,2017-01-01T22:30:00Z,28.4330,-82.6670,81.21,1111122 
COMPS,ioos:station:USF.COMPS:ARP:1,2017-01-01T22:36:00Z,28.4330,-82.6670,81.63,1111122 
COMPS,ioos:station:USF.COMPS:ARP:1,2017-01-01T22:42:00Z,28.4330,-82.6670,82.65,1111122 
COMPS,ioos:station:USF.COMPS:ARP:1,2017-01-01T22:48:00Z,28.4330,-82.6670,83.68,1111122 
COMPS,ioos:station:USF.COMPS:ARP:1,2017-01-01T22:54:00Z,28.4330,-82.6670,84.01,1111122 
COMPS,ioos:station:USF.COMPS:ARP:1,2017-01-01T23:00:00Z,28.4330,-82.6670,84.41,1111122 
COMPS,ioos:station:USF.COMPS:ARP:1,2017-01-01T23:06:00Z,28.4330,-82.6670,84.68,1111122 
COMPS,ioos:station:USF.COMPS:ARP:1,2017-01-01T23:12:00Z,28.4330,-82.6670,84.91,1111122 
COMPS,ioos:station:USF.COMPS:ARP:1,2017-01-01T23:18:00Z,28.4330,-82.6670,85.36,1111122 
COMPS,ioos:station:USF.COMPS:ARP:1,2017-01-01T23:24:00Z,28.4330,-82.6670,85.72,1111122 
COMPS,ioos:station:USF.COMPS:ARP:1,2017-01-01T23:30:00Z,28.4330,-82.6670,85.77,1111122 
COMPS,ioos:station:USF.COMPS:ARP:1,2017-01-01T23:36:00Z,28.4330,-82.6670,85.07,1111122 
COMPS,ioos:station:USF.COMPS:ARP:1,2017-01-01T23:42:00Z,28.4330,-82.6670,84.54,1111122 
COMPS,ioos:station:USF.COMPS:ARP:1,2017-01-01T23:48:00Z,28.4330,-82.6670,84.23,1111122 
COMPS,ioos:station:USF.COMPS:ARP:1,2017-01-01T23:54:00Z,28.4330,-82.6670,84.37,1111122 
COMPS,ioos:station:USF.COMPS:ARP:1,2017-01-02T00:00:00Z,28.4330,-82.6670,84.32,1111122 
COMPS,ioos:station:USF.COMPS:ARP:1,2017-01-02T00:06:00Z,28.4330,-82.6670,83.77,1111122 
COMPS,ioos:station:USF.COMPS:ARP:1,2017-01-02T00:12:00Z,28.4330,-82.6670,83.78,1111122 
COMPS,ioos:station:USF.COMPS:ARP:1,2017-01-02T00:18:00Z,28.4330,-82.6670,84.59,1111122 
COMPS,ioos:station:USF.COMPS:ARP:1,2017-01-02T00:24:00Z,28.4330,-82.6670,85.17,1111122 
COMPS,ioos:station:USF.COMPS:ARP:1,2017-01-02T00:30:00Z,28.4330,-82.6670,87.33,1111122 
COMPS,ioos:station:USF.COMPS:ARP:1,2017-01-02T00:36:00Z,28.4330,-82.6670,87.99,1111122 
COMPS,ioos:station:USF.COMPS:ARP:1,2017-01-02T00:42:00Z,28.4330,-82.6670,87.22,1111122 
COMPS,ioos:station:USF.COMPS:ARP:1,2017-01-02T00:48:00Z,28.4330,-82.6670,86.73,1111122 
COMPS,ioos:station:USF.COMPS:ARP:1,2017-01-02T00:54:00Z,28.4330,-82.6670,86.34,1111122 
COMPS,ioos:station:USF.COMPS:ARP:1,2017-01-02T01:00:00Z,28.4330,-82.6670,85.43,1111122 
COMPS,ioos:station:USF.COMPS:ARP:1,2017-01-02T01:06:00Z,28.4330,-82.6670,86.17,1111122 
COMPS,ioos:station:USF.COMPS:ARP:1,2017-01-02T01:12:00Z,28.4330,-82.6670,87.39,1111122 
COMPS,ioos:station:USF.COMPS:ARP:1,2017-01-02T01:18:00Z,28.4330,-82.6670,87.83,1111122 
COMPS,ioos:station:USF.COMPS:ARP:1,2017-01-02T01:24:00Z,28.4330,-82.6670,87.03,1111122 
COMPS,ioos:station:USF.COMPS:ARP:1,2017-01-02T01:30:00Z,28.4330,-82.6670,88.3,1111122 
COMPS,ioos:station:USF.COMPS:ARP:1,2017-01-02T01:36:00Z,28.4330,-82.6670,89.15,1111122 
COMPS,ioos:station:USF.COMPS:ARP:1,2017-01-02T01:42:00Z,28.4330,-82.6670,88.9,1111122 
COMPS,ioos:station:USF.COMPS:ARP:1,2017-01-02T01:48:00Z,28.4330,-82.6670,89.36,1111122 
COMPS,ioos:station:USF.COMPS:ARP:1,2017-01-02T01:54:00Z,28.4330,-82.6670,89.78,1111122 
COMPS,ioos:station:USF.COMPS:ARP:1,2017-01-02T02:00:00Z,28.4330,-82.6670,90.11,1111122 
COMPS,ioos:station:USF.COMPS:ARP:1,2017-01-02T02:06:00Z,28.4330,-82.6670,91.29,1111122 
COMPS,ioos:station:USF.COMPS:ARP:1,2017-01-02T02:12:00Z,28.4330,-82.6670,91.54,1111122 
COMPS,ioos:station:USF.COMPS:ARP:1,2017-01-02T02:18:00Z,28.4330,-82.6670,90.68,1111122 
COMPS,ioos:station:USF.COMPS:ARP:1,2017-01-02T02:24:00Z,28.4330,-82.6670,89.87,1111122 
COMPS,ioos:station:USF.COMPS:ARP:1,2017-01-02T02:30:00Z,28.4330,-82.6670,89.53,1111122 
COMPS,ioos:station:USF.COMPS:ARP:1,2017-01-02T02:36:00Z,28.4330,-82.6670,89.95,1111122 
COMPS,ioos:station:USF.COMPS:ARP:1,2017-01-02T02:42:00Z,28.4330,-82.6670,90.87,1111122 
COMPS,ioos:station:USF.COMPS:ARP:1,2017-01-02T02:48:00Z,28.4330,-82.6670,91.54,1111122 
COMPS,ioos:station:USF.COMPS:ARP:1,2017-01-02T02:54:00Z,28.4330,-82.6670,91.87,1111122 
COMPS,ioos:station:USF.COMPS:ARP:1,2017-01-02T03:00:00Z,28.4330,-82.6670,91.35,1111122 
COMPS,ioos:station:USF.COMPS:ARP:1,2017-01-02T03:06:00Z,28.4330,-82.6670,91.2,1111122 